QPF
0.01 0.01 0.01 0.01 0.01 0.00 0.00 0.00 0.00 0.01 0.02 0.03 0.03 0.03 0.03 0.03 0.03 0.03 0.02 0.01 0.00 0.00 0.00 0.00 0.00 0.00 0.00 0.00 0.00 0.00 0.00 0.00 0.00 0.00 0.00 0.00 0.00 0.00 0.01 0.01 0.02 0.04 0.05 0.06
0.01 0.01 0.00 0.01 0.01 0.00 0.00 0.00 0.00 0.00 0.01 0.02 0.01 0.01 0.01 0.02 0.01 0.01 0.01 0.00 0.00 0.00 0.00 0.00 0.00 0.00 0.00 0.00 0.00 0.00 0.00 0.00 0.00 0.00 0.00 0.00 0.00 0.00 0.00 0.01 0.01 0.02 0.02 0.04
0.00 0.00 0.00 0.00 0.00 0.00 0.00 0.00 0.00 0.00 0.01 0.01 0.01 0.01 0.01 0.01 0.00 0.00 0.00 0.00 0.00 0.00 0.00 0.00 0.00 0.00 0.00 0.00 0.00 0.00 0.00 0.00 0.00 0.00 0.00 0.00 0.00 0.00 0.00 0.00 0.00 0.01 0.02 0.03
0.00 0.00 0.00 0.00 0.00 0.00 0.00 0.00 0.00 0.00 0.00 0.00 0.00 0.00 0.00 0.00 0.00 0.00 0.00 0.00 0.00 0.00 0.00 0.00 0.00 0.00 0.00 0.00 0.00 0.00 0.00 0.00 0.00 0.00 0.00 0.00 0.00 0.00 0.00 0.00 0.00 0.00 0.01 0.01
0.00 0.00 0.00 0.00 0.00 0.00 0.00 0.00 0.00 0.00 0.00 0.00 0.00 0.00 0.00 0.00 0.00 0.00 0.00 0.00 0.00 0.00 0.00 0.00 0.00 0.00 0.00 0.00 0.00 0.00 0.00 0.00 0.00 0.00 0.00 0.00 0.00 0.00 0.00 0.00 0.00 0.00 0.00 0.00
0.00 0.00 0.00 0.00 0.00 0.00 0.00 0.00 0.00 0.00 0.00 0.00 0.00 0.00 0.00 0.00 0.00 0.00 0.00 0.00 0.00 0.00 0.00 0.00 0.00 0.00 0.00 0.00 0.00 0.00 0.00 0.00 0.00 0.00 0.00 0.00 0.00 0.00 0.00 0.00 0.00 0.00 0.00 0.00
0.00 0.00 0.00 0.00 0.00 0.00 0.00 0.00 0.00 0.00 0.00 0.00 0.00 0.00 0.00 0.00 0.00 0.00 0.00 0.00 0.00 0.00 0.00 0.00 0.00 0.00 0.00 0.00 0.00 0.00 0.00 0.00 0.00 0.00 0.00 0.00 0.00 0.00 0.00 0.00 0.00 0.01 0.01 0.01
0.00 0.00 0.00 0.00 0.00 0.00 0.00 0.00 0.00 0.00 0.00 0.00 0.00 0.00 0.00 0.00 0.00 0.00 0.00 0.00 0.00 0.00 0.00 0.00 0.00 0.00 0.00 0.00 0.00 0.00 0.00 0.00 0.00 0.00 0.00 0.00 0.00 0.00 0.00 0.00 0.00 0.00 0.01 0.01
0.00 0.00 0.00 0.00 0.00 0.00 0.00 0.00 0.00 0.00 0.00 0.00 0.00 0.00 0.00 0.00 0.00 0.00 0.00 0.00 0.00 0.00 0.00 0.00 0.00 0.00 0.00 0.00 0.00 0.00 0.00 0.00 0.00 0.00 0.00 0.00 0.00 0.00 0.00 0.00 0.00 0.00 0.00 0.01
0.00 0.00 0.00 0.00 0.00 0.00 0.00 0.00 0.00 0.00 0.00 0.00 0.00 0.00 0.00 0.00 0.00 0.00 0.00 0.00 0.00 0.00 0.00 0.00 0.00 0.00 0.00 0.00 0.00 0.00 0.00 0.00 0.00 0.00 0.00 0.00 0.00 0.00 0.00 0.00 0.00 0.00 0.01 0.01
0.00 0.00 0.00 0.00 0.00 0.00 0.00 0.00 0.00 0.00 0.00 0.00 0.00 0.00 0.00 0.00 0.00 0.00 0.00 0.00 0.00 0.00 0.00 0.00 0.00 0.00 0.00 0.00 0.00 0.00 0.00 0.00 0.00 0.00 0.00 0.00 0.00 0.00 0.00 0.00 0.01 0.01 0.01 0.01
0.00 0.00 0.00 0.00 0.00 0.00 0.00 0.00 0.00 0.00 0.00 0.00 0.00 0.00 0.00 0.00 0.00 0.00 0.00 0.00 0.00 0.00 0.00 0.00 0.00 0.00 0.00 0.00 0.00 0.00 0.00 0.00 0.00 0.00 0.00 0.00 0.00 0.00 0.00 0.00 0.01 0.01 0.01 0.01
0.00 0.00 0.00 0.00 0.00 0.00 0.00 0.00 0.00 0.00 0.00 0.00 0.00 0.00 0.00 0.00 0.00 0.00 0.00 0.00 0.00 0.00 0.00 0.00 0.00 0.00 0.00 0.00 0.00 0.00 0.00 0.00 0.00 0.00 0.00 0.00 0.00 0.00 0.00 0.00 0.01 0.01 0.01 0.01
0.00 0.00 0.00 0.00 0.00 0.00 0.00 0.00 0.00 0.00 0.00 0.00 0.00 0.00 0.00 0.00 0.00 0.00 0.00 0.00 0.00 0.00 0.00 0.00 0.00 0.00 0.00 0.00 0.00 0.00 0.00 0.00 0.00 0.00 0.00 0.00 0.01 0.01 0.01 0.01 0.01 0.01 0.01 0.01
0.00 0.00 0.00 0.00 0.00 0.00 0.00 0.00 0.00 0.00 0.00 0.00 0.00 0.00 0.00 0.00 0.00 0.00 0.00 0.00 0.00 0.00 0.00 0.00 0.00 0.00 0.00 0.00 0.00 0.00 0.00 0.00 0.00 0.01 0.01 0.01 0.01 0.01 0.01 0.01 0.01 0.01 0.01 0.01
0.00 0.00 0.00 0.00 0.00 0.00 0.00 0.00 0.00 0.00 0.00 0.00 0.00 0.00 0.00 0.00 0.00 0.00 0.00 0.00 0.00 0.00 0.00 0.00 0.00 0.00 0.00 0.00 0.00 0.00 0.00 0.00 0.01 0.01 0.01 0.01 0.01 0.01 0.01 0.01 0.01 0.01 0.01 0.01
0.00 0.00 0.00 0.00 0.00 0.00 0.00 0.00 0.00 0.00 0.00 0.00 0.00 0.00 0.00 0.00 0.00 0.00 0.00 0.00 0.00 0.00 0.00 0.00 0.00 0.00 0.00 0.00 0.00 0.00 0.00 0.00 0.00 0.01 0.01 0.01 0.01 0.02 0.02 0.02 0.02 0.02 0.01 0.01
0.00 0.00 0.00 0.00 0.00 0.00 0.00 0.00 0.00 0.00 0.00 0.00 0.00 0.00 0.00 0.00 0.00 0.00 0.00 0.00 0.00 0.00 0.00 0.00 0.00 0.00 0.00 0.00 0.00 0.01 0.01 0.01 0.01 0.01 0.01 0.02 0.02 0.02 0.02 0.02 0.02 0.02 0.02 0.02
0.00 0.00 0.00 0.00 0.00 0.00 0.00 0.00 0.00 0.00 0.00 0.00 0.00 0.00 0.00 0.00 0.00 0.00 0.00 0.00 0.00 0.00 0.00 0.00 0.00 0.00 0.00 0.00 0.00 0.01 0.01 0.01 0.01 0.01 0.01 0.02 0.02 0.02 0.02 0.03 0.03 0.03 0.03 0.03
0.00 0.00 0.00 0.00 0.00 0.00 0.00 0.00 0.00 0.00 0.00 0.00 0.00 0.00 0.00 0.00 0.00 0.00 0.00 0.00 0.00 0.00 0.00 0.00 0.00 0.00 0.00 0.00 0.01 0.01 0.01 0.01 0.01 0.01 0.01 0.02 0.02 0.02 0.02 0.03 0.03 0.03 0.03 0.04
0.00 0.00 0.00 0.00 0.00 0.00 0.00 0.00 0.00 0.00 0.00 0.00 0.00 0.00 0.00 0.00 0.00 0.00 0.00 0.00 0.00 0.00 0.00 0.00 0.00 0.00 0.01 0.01 0.02 0.01 0.01 0.01 0.01 0.01 0.02 0.02 0.02 0.02 0.02 0.03 0.03 0.04 0.04 0.04
0.00 0.00 0.00 0.00 0.00 0.00 0.00 0.00 0.00 0.00 0.00 0.00 0.00 0.00 0.00 0.00 0.00 0.00 0.00 0.00 0.00 0.00 0.00 0.00 0.00 0.01 0.02 0.02 0.01 0.01 0.01 0.01 0.01 0.01 0.02 0.02 0.02 0.02 0.02 0.03 0.03 0.03 0.03 0.04
0.00 0.00 0.00 0.00 0.00 0.00 0.00 0.00 0.00 0.00 0.00 0.00 0.00 0.00 0.00 0.00 0.00 0.00 0.00 0.00 0.00 0.00 0.00 0.00 0.00 0.01 0.01 0.01 0.00 0.01 0.01 0.01 0.01 0.01 0.02 0.02 0.02 0.03 0.03 0.03 0.03 0.03 0.04 0.04
0.00 0.00 0.00 0.00 0.00 0.00 0.00 0.00 0.00 0.00 0.00 0.00 0.00 0.00 0.00 0.00 0.00 0.00 0.00 0.00 0.00 0.00 0.00 0.00 0.00 0.01 0.01 0.00 0.00 0.01 0.01 0.01 0.01 0.02 0.02 0.02 0.02 0.02 0.02 0.03 0.03 0.03 0.03 0.03
0.00 0.00 0.00 0.00 0.00 0.00 0.00 0.00 0.00 0.00 0.00 0.00 0.00 0.00 0.00 0.00 0.00 0.00 0.00 0.00 0.00 0.00 0.00 0.00 0.00 0.00 0.00 0.00 0.00 0.01 0.01 0.01 0.02 0.02 0.02 0.02 0.02 0.02 0.02 0.02 0.03 0.03 0.03 0.03
0.00 0.00 0.00 0.00 0.00 0.00 0.00 0.00 0.00 0.00 0.00 0.00 0.00 0.00 0.00 0.00 0.00 0.00 0.00 0.00 0.00 0.00 0.00 0.00 0.00 0.00 0.00 0.00 0.00 0.01 0.01 0.01 0.01 0.01 0.01 0.02 0.02 0.02 0.02 0.03 0.03 0.03 0.03 0.03
0.00 0.00 0.00 0.00 0.00 0.00 0.00 0.00 0.00 0.00 0.00 0.00 0.00 0.00 0.00 0.00 0.00 0.00 0.00 0.00 0.00 0.00 0.00 0.00 0.00 0.00 0.00 0.00 0.00 0.00 0.01 0.01 0.01 0.01 0.02 0.02 0.02 0.02 0.03 0.03 0.03 0.03 0.03 0.03
MSLP
1013.45 1013.47 1013.46 1013.47 1013.51 1013.61 1013.83 1014.16 1014.61 1015.18 1015.84 1016.55 1017.26 1017.93 1018.52 1019.00 1019.37 1019.63 1019.80 1019.88 1019.92 1019.92 1019.92 1019.89 1019.84 1019.77 1019.66 1019.50 1019.30 1019.05 1018.78 1018.49 1018.20 1017.91 1017.63 1017.36 1017.07 1016.75 1016.38 1015.94 1015.43 1014.84 1014.21 1013.54
1014.12 1014.17 1014.17 1014.16 1014.17 1014.24 1014.40 1014.67 1015.07 1015.59 1016.21 1016.89 1017.59 1018.25 1018.86 1019.36 1019.76 1020.04 1020.23 1020.34 1020.40 1020.41 1020.41 1020.39 1020.34 1020.26 1020.14 1019.98 1019.76 1019.50 1019.21 1018.91 1018.60 1018.30 1018.01 1017.73 1017.44 1017.12 1016.76 1016.33 1015.83 1015.25 1014.61 1013.93
1014.73 1014.77 1014.77 1014.75 1014.75 1014.80 1014.93 1015.17 1015.54 1016.03 1016.62 1017.27 1017.95 1018.60 1019.20 1019.70 1020.10 1020.40 1020.59 1020.72 1020.78 1020.81 1020.81 1020.79 1020.74 1020.66 1020.54 1020.36 1020.14 1019.87 1019.57 1019.25 1018.92 1018.61 1018.31 1018.01 1017.72 1017.40 1017.05 1016.64 1016.16 1015.59 1014.96 1014.27
1015.20 1015.22 1015.20 1015.17 1015.16 1015.21 1015.34 1015.58 1015.94 1016.41 1016.97 1017.60 1018.25 1018.88 1019.45 1019.94 1020.33 1020.62 1020.82 1020.94 1021.02 1021.05 1021.06 1021.04 1021.00 1020.92 1020.81 1020.63 1020.41 1020.14 1019.83 1019.50 1019.16 1018.83 1018.51 1018.20 1017.90 1017.58 1017.23 1016.83 1016.36 1015.81 1015.19 1014.50
1015.52 1015.49 1015.44 1015.40 1015.39 1015.44 1015.59 1015.84 1016.20 1016.67 1017.21 1017.82 1018.43 1019.03 1019.56 1020.02 1020.39 1020.67 1020.87 1021.00 1021.08 1021.12 1021.15 1021.14 1021.12 1021.05 1020.94 1020.77 1020.55 1020.28 1019.96 1019.62 1019.27 1018.92 1018.59 1018.26 1017.94 1017.61 1017.25 1016.86 1016.40 1015.87 1015.26 1014.59
1015.70 1015.60 1015.51 1015.45 1015.45 1015.52 1015.68 1015.95 1016.32 1016.78 1017.32 1017.89 1018.46 1019.02 1019.51 1019.94 1020.29 1020.55 1020.75 1020.89 1020.99 1021.05 1021.09 1021.11 1021.09 1021.04 1020.94 1020.78 1020.56 1020.29 1019.97 1019.62 1019.26 1018.89 1018.53 1018.18 1017.83 1017.48 1017.11 1016.71 1016.25 1015.74 1015.16 1014.51
1015.76 1015.59 1015.46 1015.39 1015.39 1015.48 1015.67 1015.96 1016.34 1016.79 1017.31 1017.84 1018.38 1018.89 1019.35 1019.74 1020.07 1020.33 1020.54 1020.69 1020.81 1020.90 1020.96 1020.99 1020.99 1020.94 1020.84 1020.68 1020.47 1020.19 1019.86 1019.50 1019.12 1018.73 1018.34 1017.96 1017.58 1017.20 1016.80 1016.39 1015.93 1015.43 1014.87 1014.26
1015.72 1015.50 1015.34 1015.26 1015.28 1015.40 1015.62 1015.93 1016.32 1016.77 1017.25 1017.76 1018.25 1018.72 1019.14 1019.51 1019.83 1020.10 1020.32 1020.49 1020.64 1020.75 1020.83 1020.87 1020.87 1020.82 1020.71 1020.54 1020.30 1020.01 1019.67 1019.29 1018.89 1018.47 1018.05 1017.63 1017.21 1016.79 1016.37 1015.93 1015.47 1014.98 1014.44 1013.87
1015.61 1015.35 1015.19 1015.13 1015.18 1015.34 1015.60 1015.93 1016.33 1016.77 1017.24 1017.71 1018.17 1018.60 1019.00 1019.35 1019.66 1019.94 1020.17 1020.37 1020.54 1020.67 1020.75 1020.79 1020.78 1020.71 1020.57 1020.37 1020.11 1019.79 1019.42 1019.02 1018.59 1018.14 1017.69 1017.23 1016.77 1016.32 1015.86 1015.40 1014.92 1014.44 1013.93 1013.40
1015.43 1015.17 1015.03 1015.02 1015.12 1015.34 1015.64 1016.01 1016.43 1016.87 1017.32 1017.76 1018.19 1018.59 1018.97 1019.32 1019.63 1019.92 1020.17 1020.38 1020.56 1020.69 1020.77 1020.79 1020.74 1020.63 1020.46 1020.21 1019.91 1019.56 1019.16 1018.73 1018.27 1017.80 1017.31 1016.82 1016.32 1015.83 1015.33 1014.84 1014.36 1013.87 1013.39 1012.89
1015.19 1014.96 1014.88 1014.93 1015.11 1015.40 1015.76 1016.17 1016.61 1017.06 1017.50 1017.93 1018.34 1018.72 1019.08 1019.42 1019.74 1020.03 1020.29 1020.51 1020.68 1020.80 1020.85 1020.84 1020.75 1020.58 1020.36 1020.06 1019.72 1019.33 1018.90 1018.45 1017.97 1017.47 1016.96 1016.44 1015.91 1015.37 1014.84 1014.32 1013.81 1013.32 1012.84 1012.37
1014.88 1014.72 1014.72 1014.86 1015.13 1015.49 1015.92 1016.38 1016.86 1017.32 1017.77 1018.19 1018.58 1018.95 1019.30 1019.63 1019.94 1020.23 1020.48 1020.70 1020.85 1020.94 1020.95 1020.88 1020.74 1020.52 1020.23 1019.89 1019.51 1019.09 1018.64 1018.18 1017.69 1017.18 1016.65 1016.11 1015.54 1014.97 1014.40 1013.85 1013.31 1012.80 1012.32 1011.87
1014.54 1014.46 1014.54 1014.78 1015.14 1015.59 1016.08 1016.60 1017.11 1017.60 1018.05 1018.47 1018.85 1019.20 1019.54 1019.86 1020.16 1020.43 1020.67 1020.85 1020.97 1021.02 1020.98 1020.86 1020.65 1020.38 1020.05 1019.67 1019.26 1018.83 1018.38 1017.91 1017.43 1016.92 1016.38 1015.82 1015.23 1014.63 1014.02 1013.42 1012.85 1012.31 1011.82 1011.37
1014.18 1014.18 1014.36 1014.68 1015.13 1015.65 1016.22 1016.78 1017.32 1017.83 1018.28 1018.69 1019.07 1019.41 1019.73 1020.03 1020.31 1020.56 1020.76 1020.91 1020.98 1020.98 1020.88 1020.71 1020.46 1020.14 1019.78 1019.38 1018.96 1018.53 1018.09 1017.64 1017.16 1016.66 1016.13 1015.55 1014.94 1014.30 1013.65 1013.01 1012.40 1011.83 1011.31 1010.85
1013.86 1013.93 1014.19 1014.59 1015.10 1015.69 1016.29 1016.89 1017.45 1017.96 1018.42 1018.83 1019.19 1019.52 1019.82 1020.09 1020.34 1020.56 1020.72 1020.82 1020.85 1020.79 1020.65 1020.43 1020.14 1019.80 1019.42 1019.02 1018.60 1018.19 1017.77 1017.34 1016.89 1016.40 1015.86 1015.28 1014.65 1013.98 1013.29 1012.60 1011.94 1011.33 1010.79 1010.31
1013.60 1013.74 1014.06 1014.52 1015.08 1015.69 1016.32 1016.93 1017.50 1018.01 1018.46 1018.85 1019.20 1019.51 1019.78 1020.03 1020.25 1020.43 1020.55 1020.61 1020.59 1020.49 1020.31 1020.06 1019.74 1019.39 1019.00 1018.61 1018.22 1017.82 1017.43 1017.02 1016.59 1016.11 1015.57 1014.98 1014.32 1013.62 1012.89 1012.17 1011.47 1010.82 1010.25 1009.76
1013.46 1013.65 1014.01 1014.50 1015.08 1015.70 1016.33 1016.93 1017.49 1017.98 1018.41 1018.79 1019.11 1019.40 1019.65 1019.88 1020.06 1020.20 1020.29 1020.31 1020.26 1020.13 1019.92 1019.64 1019.32 1018.96 1018.59 1018.21 1017.83 1017.46 1017.08 1016.69 1016.27 1015.79 1015.25 1014.64 1013.96 1013.23 1012.47 1011.72 1010.99 1010.32 1009.72 1009.22
1013.44 1013.67 1014.06 1014.56 1015.14 1015.74 1016.35 1016.92 1017.44 1017.90 1018.31 1018.66 1018.96 1019.23 1019.47 1019.67 1019.83 1019.95 1020.01 1020.00 1019.92 1019.77 1019.55 1019.26 1018.94 1018.58 1018.21 1017.85 1017.48 1017.12 1016.76 1016.36 1015.93 1015.45 1014.89 1014.26 1013.57 1012.82 1012.04 1011.27 1010.53 1009.85 1009.25 1008.74
1013.54 1013.81 1014.21 1014.70 1015.25 1015.82 1016.38 1016.91 1017.38 1017.81 1018.18 1018.50 1018.79 1019.04 1019.26 1019.45 1019.60 1019.70 1019.75 1019.72 1019.63 1019.47 1019.24 1018.96 1018.63 1018.28 1017.92 1017.56 1017.19 1016.83 1016.45 1016.05 1015.60 1015.10 1014.52 1013.87 1013.16 1012.41 1011.63 1010.86 1010.13 1009.46 1008.87 1008.36
1013.73 1014.02 1014.42 1014.90 1015.41 1015.93 1016.43 1016.90 1017.32 1017.70 1018.04 1018.34 1018.61 1018.85 1019.06 1019.24 1019.39 1019.48 1019.52 1019.50 1019.40 1019.24 1019.01 1018.73 1018.41 1018.06 1017.70 1017.33 1016.96 1016.57 1016.18 1015.75 1015.28 1014.74 1014.15 1013.49 1012.78 1012.03 1011.27 1010.52 1009.82 1009.17 1008.61 1008.12
1013.95 1014.26 1014.66 1015.10 1015.56 1016.02 1016.46 1016.87 1017.24 1017.58 1017.88 1018.16 1018.41 1018.64 1018.85 1019.03 1019.18 1019.28 1019.32 1019.30 1019.20 1019.04 1018.82 1018.54 1018.22 1017.88 1017.51 1017.13 1016.74 1016.34 1015.91 1015.46 1014.96 1014.40 1013.80 1013.14 1012.43 1011.71 1010.98 1010.27 1009.61 1009.00 1008.47 1008.01
1014.14 1014.47 1014.85 1015.26 1015.67 1016.07 1016.44 1016.79 1017.11 1017.41 1017.68 1017.94 1018.18 1018.41 1018.62 1018.80 1018.95 1019.05 1019.10 1019.08 1018.99 1018.84 1018.62 1018.35 1018.03 1017.68 1017.32 1016.92 1016.52 1016.10 1015.65 1015.17 1014.65 1014.08 1013.47 1012.82 1012.14 1011.44 1010.76 1010.10 1009.48 1008.93 1008.43 1007.99
1014.27 1014.61 1014.96 1015.33 1015.69 1016.03 1016.34 1016.64 1016.91 1017.17 1017.42 1017.66 1017.90 1018.12 1018.34 1018.52 1018.67 1018.78 1018.83 1018.81 1018.72 1018.57 1018.36 1018.10 1017.79 1017.44 1017.07 1016.68 1016.27 1015.83 1015.37 1014.88 1014.35 1013.78 1013.18 1012.55 1011.90 1011.24 1010.60 1009.99 1009.42 1008.90 1008.43 1008.01
1014.30 1014.62 1014.95 1015.27 1015.58 1015.87 1016.14 1016.39 1016.64 1016.87 1017.10 1017.34 1017.57 1017.80 1018.00 1018.19 1018.34 1018.44 1018.48 1018.46 1018.38 1018.23 1018.02 1017.76 1017.46 1017.13 1016.77 1016.38 1015.97 1015.54 1015.08 1014.60 1014.07 1013.52 1012.93 1012.32 1011.70 1011.08 1010.48 1009.91 1009.37 1008.88 1008.42 1008.00
1014.19 1014.50 1014.80 1015.08 1015.35 1015.60 1015.83 1016.06 1016.29 1016.52 1016.75 1016.98 1017.21 1017.44 1017.64 1017.82 1017.96 1018.05 1018.09 1018.06 1017.97 1017.82 1017.62 1017.37 1017.08 1016.76 1016.42 1016.05 1015.66 1015.25 1014.81 1014.33 1013.83 1013.30 1012.73 1012.15 1011.55 1010.96 1010.37 1009.82 1009.30 1008.81 1008.35 1007.91
1013.93 1014.22 1014.49 1014.74 1014.99 1015.22 1015.44 1015.67 1015.90 1016.14 1016.38 1016.62 1016.87 1017.09 1017.30 1017.47 1017.60 1017.68 1017.69 1017.65 1017.55 1017.40 1017.19 1016.95 1016.68 1016.38 1016.06 1015.72 1015.36 1014.97 1014.56 1014.11 1013.63 1013.12 1012.57 1012.00 1011.42 1010.83 1010.26 1009.70 1009.16 1008.66 1008.18 1007.72
1013.51 1013.78 1014.03 1014.28 1014.52 1014.76 1015.00 1015.25 1015.51 1015.77 1016.05 1016.32 1016.58 1016.82 1017.03 1017.19 1017.30 1017.36 1017.36 1017.30 1017.18 1017.02 1016.81 1016.58 1016.32 1016.04 1015.74 1015.43 1015.10 1014.74 1014.35 1013.93 1013.47 1012.97 1012.44 1011.88 1011.29 1010.70 1010.10 1009.52 1008.96 1008.43 1007.92 1007.43
Thickness
5528 5532 5534 5533 5534 5537 5534 5534 5529 5527 5525 5522 5517 5513 5510 5508 5507 5507 5506 5506 5506 5505 5505 5506 5507 5508 5509 5511 5512 5513 5514 5514 5514 5515 5517 5519 5520 5521 5523 5524 5526 5527 5528 5530
5527 5535 5535 5534 5534 5536 5537 5536 5530 5527 5525 5524 5518 5513 5510 5508 5507 5505 5504 5503 5503 5502 5502 5501 5502 5502 5502 5502 5502 5503 5503 5503 5504 5504 5505 5505 5506 5507 5508 5509 5511 5512 5513 5514
5519 5530 5536 5530 5531 5534 5536 5536 5536 5531 5528 5521 5517 5515 5511 5508 5506 5504 5502 5501 5499 5497 5495 5494 5494 5494 5494 5494 5494 5493 5492 5492 5492 5492 5492 5492 5492 5492 5493 5493 5494 5495 5496 5497
5515 5528 5528 5534 5537 5537 5535 5534 5535 5532 5527 5524 5520 5515 5510 5507 5504 5501 5500 5498 5495 5492 5490 5488 5487 5486 5485 5483 5482 5481 5479 5479 5478 5477 5476 5476 5475 5475 5475 5475 5476 5476 5477 5478
5512 5520 5528 5536 5537 5537 5535 5533 5532 5528 5524 5519 5513 5509 5505 5505 5501 5498 5495 5492 5488 5486 5483 5481 5479 5477 5475 5473 5471 5468 5467 5465 5463 5461 5460 5459 5457 5456 5455 5455 5455 5455 5456 5457
5517 5530 5538 5546 5540 5538 5535 5529 5532 5528 5522 5515 5512 5504 5502 5501 5497 5493 5490 5486 5483 5479 5475 5472 5470 5468 5465 5462 5458 5456 5453 5451 5448 5445 5442 5440 5438 5436 5435 5433 5433 5433 5434 5434
5517 5523 5530 5540 5537 5536 5526 5535 5533 5526 5520 5514 5510 5506 5501 5496 5492 5488 5485 5481 5477 5472 5467 5464 5460 5457 5453 5449 5445 5443 5439 5435 5431 5427 5423 5420 5417 5415 5412 5411 5410 5410 5411 5412
5514 5522 5530 5539 5533 5529 5532 5531 5528 5523 5517 5511 5505 5500 5495 5491 5486 5482 5477 5474 5469 5463 5458 5454 5450 5445 5441 5436 5432 5428 5423 5418 5413 5408 5403 5400 5395 5392 5389 5387 5386 5386 5386 5388
5522 5532 5536 5533 5535 5535 5529 5527 5524 5518 5513 5506 5499 5494 5490 5485 5479 5475 5470 5465 5460 5454 5448 5443 5438 5432 5427 5423 5418 5412 5406 5400 5394 5388 5383 5377 5372 5369 5366 5363 5361 5361 5360 5362
5523 5530 5533 5533 5531 5531 5527 5524 5520 5515 5508 5502 5496 5489 5483 5477 5471 5466 5462 5456 5450 5444 5437 5431 5426 5420 5414 5409 5403 5396 5390 5383 5376 5370 5365 5359 5353 5349 5344 5341 5338 5337 5336 5337
5522 5529 5531 5532 5527 5526 5522 5517 5513 5509 5503 5497 5491 5484 5477 5470 5464 5458 5453 5447 5440 5433 5426 5421 5415 5408 5402 5395 5388 5380 5372 5365 5359 5353 5348 5343 5337 5331 5326 5322 5316 5315 5314 5313
5532 5534 5529 5531 5529 5522 5516 5511 5507 5502 5496 5491 5485 5478 5471 5463 5457 5450 5443 5437 5429 5422 5416 5410 5403 5396 5389 5381 5372 5364 5357 5349 5343 5336 5331 5325 5320 5317 5311 5305 5302 5297 5295 5294
5539 5536 5529 5530 5524 5518 5513 5507 5501 5496 5490 5482 5477 5470 5464 5455 5448 5441 5434 5426 5419 5412 5406 5398 5391 5384 5376 5367 5358 5349 5340 5333 5327 5320 5314 5308 5302 5297 5295 5292 5286 5282 5280 5279
5530 5527 5524 5521 5517 5512 5506 5501 5494 5487 5481 5475 5467 5461 5453 5446 5438 5431 5423 5416 5409 5402 5394 5387 5379 5371 5362 5353 5344 5334 5325 5318 5311 5304 5297 5290 5285 5279 5275 5273 5273 5270 5267 5265
5526 5526 5523 5517 5509 5503 5497 5490 5483 5476 5471 5464 5457 5450 5443 5435 5428 5420 5413 5405 5398 5390 5382 5374 5366 5358 5349 5339 5330 5320 5311 5304 5296 5289 5282 5276 5270 5265 5261 5258 5256 5256 5257 5256
5518 5514 5510 5506 5500 5494 5488 5483 5475 5468 5461 5455 5446 5440 5433 5425 5417 5409 5401 5393 5385 5378 5370 5362 5353 5344 5335 5326 5316 5307 5298 5291 5283 5276 5269 5263 5257 5253 5249 5247 5245 5245 5246 5247
5508 5504 5499 5495 5491 5486 5481 5475 5469 5461 5452 5445 5437 5430 5421 5413 5405 5397 5389 5381 5373 5365 5358 5349 5341 5332 5322 5312 5303 5294 5286 5278 5271 5263 5256 5251 5246 5242 5239 5238 5237 5237 5238 5239
5511 5508 5501 5495 5488 5479 5472 5465 5458 5451 5443 5436 5427 5419 5410 5402 5394 5386 5378 5369 5361 5353 5346 5337 5328 5320 5310 5300 5291 5283 5274 5266 5259 5252 5246 5241 5237 5234 5232 5231 5230 5231 5232 5233
5501 5496 5491 5485 5479 5471 5463 5455 5448 5440 5432 5424 5416 5408 5400 5391 5383 5375 5366 5358 5350 5342 5334 5324 5317 5308 5298 5289 5281 5272 5264 5256 5249 5242 5237 5233 5230 5227 5226 5225 5225 5225 5226 5227
5489 5485 5479 5473 5466 5459 5452 5444 5436 5428 5420 5413 5405 5397 5388 5380 5372 5364 5355 5347 5339 5331 5323 5315 5306 5296 5287 5278 5271 5262 5254 5246 5240 5234 5229 5225 5223 5221 5220 5220 5220 5221 5221 5222
5475 5471 5466 5460 5453 5447 5440 5433 5425 5418 5410 5402 5395 5387 5379 5371 5362 5353 5345 5338 5331 5322 5313 5305 5295 5286 5277 5270 5263 5253 5245 5237 5232 5227 5223 5220 5218 5216 5216 5215 5215 5216 5217 5218
5461 5457 5452 5446 5440 5433 5426 5420 5414 5407 5399 5392 5385 5377 5369 5361 5353 5344 5336 5328 5320 5312 5304 5294 5285 5277 5270 5262 5252 5244 5237 5230 5225 5221 5217 5215 5213 5212 5212 5211 5211 5212 5213 5214
5449 5445 5439 5433 5428 5420 5414 5408 5402 5396 5389 5382 5375 5367 5360 5352 5344 5335 5327 5319 5310 5303 5295 5284 5277 5270 5263 5252 5243 5235 5229 5223 5218 5215 5212 5211 5209 5208 5207 5207 5207 5208 5210 5211
5437 5432 5427 5420 5414 5408 5402 5397 5391 5385 5379 5372 5365 5358 5350 5341 5333 5325 5317 5309 5301 5294 5285 5276 5270 5263 5254 5243 5235 5228 5223 5218 5214 5211 5209 5207 5206 5204 5203 5204 5204 5206 5207 5209
5426 5420 5414 5408 5403 5399 5394 5387 5380 5374 5368 5361 5355 5348 5340 5333 5324 5316 5308 5299 5292 5285 5276 5268 5261 5254 5245 5236 5229 5223 5218 5214 5212 5210 5207 5204 5202 5202 5201 5201 5202 5203 5206 5209
5415 5411 5406 5401 5397 5391 5384 5378 5371 5365 5359 5352 5345 5338 5331 5323 5316 5307 5299 5291 5283 5276 5267 5259 5252 5245 5238 5231 5225 5220 5215 5212 5209 5206 5204 5203 5201 5201 5201 5201 5201 5203 5205 5208
5404 5400 5394 5389 5384 5380 5375 5369 5363 5356 5351 5344 5337 5330 5322 5315 5307 5299 5291 5283 5275 5268 5260 5253 5246 5239 5233 5227 5222 5217 5214 5210 5208 5205 5204 5202 5201 5200 5200 5200 5201 5203 5206 5209